Flag for Brazil Weather past 2 weeks in Pirassununga, São Paulo, Brazil

Now
52 °F

Passing clouds.


Feels Like: 52 °F
Forecast: 50 / 60 °F
Wind: 2 mph from South

Location: Pirassununga Airport

Current Time: Jul 26, 2014 at 1:01:32 AM

Latest Report: Jul 25, 2014 at 11:00 PM


Visibility: N/A

Pressure: 30.18 "Hg

Humidity: 100%

Dew point: 52 °F

Location of PirassunungaLocation

Historic Weather in Pirassununga — Graph

°F

Pirassununga temperature yesterday

Maximum temperature yesterday: 61 °F (at 1:00 PM)
Minimum temperature yesterday: 52 °F (at 9:00 PM)
Average temperature yesterday: 57 °F

Past Weeks' High & Low Weather Summary

 TemperatureHumidityPressure
High82 °F (Jul 17, 4:00 PM)100% (Jul 11, 6:00 AM)30.36 "Hg (Jul 11, 6:00 AM)
Low39 °F (Jul 20, 7:00 AM)27% (Jul 20, 4:00 PM)30.01 "Hg (Jul 24, 12:00 PM)
Average64 °F68%30.18 "Hg
* Reported Jul 10 11:00 PM — Jul 25 11:00 PM, Pirassununga, Weather by CustomWeather, © 2014

Note: Actual official high and low records may vary slightly from our data, if they occured in-between our weather recording intervals... More about our weather records

Advertising

Pirassununga weather history for previous 24 hours

 ConditionsComfort  
Time TempWeatherWind HumidityBarometerVisibility
11:00 PM
Jul 25
52 °FPassing clouds.2 mph100%30.18 "HgN/A
10:00 PM52 °FPartly cloudy.2 mph100%30.21 "HgN/A
9:00 PM52 °FClear.3 mph100%30.18 "Hg10 mi
8:00 PM54 °FClear.5 mph94%30.15 "Hg10 mi
7:00 PM55 °FClear.5 mph94%30.15 "Hg10 mi
6:00 PM57 °FPassing clouds.5 mph88%30.15 "HgN/A
5:00 PM59 °FPassing clouds.6 mph82%30.12 "HgN/A
4:00 PM59 °FScattered clouds.9 mph82%30.12 "HgN/A
3:00 PM61 °FPartly sunny.8 mph77%30.09 "HgN/A
2:00 PM61 °FBroken clouds.8 mph77%30.12 "HgN/A
1:00 PM61 °FBroken clouds.8 mph77%30.15 "HgN/A
12:00 PM59 °FBroken clouds.5 mph88%30.15 "HgN/A
11:00 AM59 °FBroken clouds.5 mph88%30.18 "HgN/A
10:00 AM59 °FBroken clouds.2 mph88%30.18 "HgN/A
9:00 AM57 °FBroken clouds.3 mph88%30.15 "HgN/A
8:00 AM57 °FPartly sunny.3 mph94%30.12 "HgN/A
7:00 AM57 °FPartly sunny.3 mph94%30.12 "Hg4 mi
6:00 AM57 °FFog.7 mph100%30.09 "Hg3 mi
Weather by CustomWeather, © 2014

See weather overviewHow to use our weather pages